FENGYUN 1C DEB, 31887

Orbit data source: Space-Track

FENGYUN 1C DEB, 31887 is space debris in SSO originally from a launch on Mon, 10 May 1999 UTC launched from the Taiyaun Space Center, China (TSC). Fengyun 1C debris stems from the Chinese weather satellite Fengyun-1C, which was intentionally destroyed by a Chinese anti-satellite missile in 2007. This event dramatically increased the amount of space debris, with thousands of trackable fragments posing hazards to satellites and human spaceflight. The Fengyun 1C debris cloud has become a focal point in discussions about space sustainability and the need for international regulations to prevent the creation of new debris.

Loading next visibility...
Identifier
31887, 1999-025CKN
Orbit
SSO
Country
Flag of CNCN / PRC
Related business
Manufacturer
Unknown
Mission
Spacecraft
Bus & Motor
Unknown
Mass
Unknown
Launch date (UTC)
1999-05-10 (27 years ago)
Launch vehicle
Unknown
Launch site
Taiyaun Space Center, China (TSC)
Object type
Payload
Rocket body
Debris
Shape & HBR
Unknown shape, 0.1 m
Radar Cross Section
Medium (>0.1 m² and <1 m²)

Expand to show TLE details & history
Last TLE update: 8 hours ago

TLE from 8 hours ago
0 FENGYUN 1C DEB
1 31887U 99025CKN 26150.18275206  .00004907  00000-0  10293-2 0  9994
2 31887  99.5229 231.3802 0021733 219.4425 140.5190 14.60087458990648
Epoch: 2026-05-30T04:23Z
TLE epoch observation values (Epoch: 2026-05-30T04:23:09.777Z)
Latitude
Longitude
-82.11298°
Altitude
707.71 km
Speed
7.496 km/s
True Right ascension
15h 25m 31s
True Declination
0° 00' 00"
Sunlit
Object was in full shadow at epoch
Visualization orbit readout
Latitude
Unknown
Longitude
Unknown
Altitude
Unknown
Speed
Unknown
Apparent Right ascension
Unknown
Apparent Declination
Unknown
Sunlit
N/A
Visualization observer readout
Local Sidereal Time
21:57:27
Azimuth
Unknown
Elevation
Unknown
Doppler factor
Unknown
Orbital elements
Apogee altitude
705.4 km
Perigee altitude
674.677 km
Semi-major axis
7,068.175 km
Eccentricity
0.00217
Inclination
99.5229°
RAAN
231.3802°
Arg. of periapsis
219.4425°
True anomaly
140.67701°
Mean anomaly
140.519°
Eccentric anomaly
140.59804°
Mean motion
3.65243 °/min
Orbital period
98.56 mins
BSTAR
0.0010293
Loading maneuver chart data...
Computing Atmospheric mass density...
Loading historical data...
Loading historical data...
Loading historical data...
Loading historical data...
Loading historical data...
Loading historical data...
Loading historical data...

Documentation

Showing up to 5 results
|